Flag for Norway Weather past 2 weeks in Kvernaland, Norway

Now
49 °F

Partly sunny.


Feels Like: 46 °F
Forecast: 38 / 49 °F
Wind: 9 mph from Northwest

Location: Stavanger / Sola

Current Time: May 23, 2015 at 2:54:11 PM

Latest Report: May 23, 2015 at 2:00 PM


Visibility: 13 mi

Pressure: 30.17 "Hg

Humidity: 60%

Dew point: 36 °F

Location of KvernalandLocation

Historic Weather in Kvernaland — Graph

°F

Kvernaland temperature yesterday

Maximum temperature yesterday: 51 °F (at 12:00 PM)
Minimum temperature yesterday: 47 °F (at 9:00 PM)
Average temperature yesterday: 49 °F

Past Weeks' High & Low Weather Summary

 TemperatureHumidityPressure
High54 °F (May 18, 1:00 PM)97% (May 13, 7:00 AM)30.17 "Hg (May 13, 7:00 AM)
Low35 °F (May 9, 3:00 AM)40% (May 9, 12:00 PM)29.23 "Hg (May 19, 7:00 AM)
Average47 °F81%29.86 "Hg
* Reported May 8 1:00 PM — May 23 1:00 PM, Kvernaland, Weather by CustomWeather, © 2015

Note: Actual official high and low records may vary slightly from our data, if they occured in-between our weather recording intervals... More about our weather records

Advertising

Kvernaland weather history for previous 24 hours

 ConditionsComfort  
Time TempWeatherWind HumidityBarometerVisibility
1:00 PM
Sat, May 23
50 °FPartly sunny.10 mph62%30.17 "Hg11 mi
12:00 PM50 °FPartly sunny.9 mph63%30.16 "Hg10 mi
11:00 AM48 °FOvercast.9 mph64%30.15 "Hg12 mi
10:00 AM48 °FRain showers. Partly sunny.9 mph66%30.14 "Hg10 mi
9:00 AM48 °FOvercast.10 mph70%30.11 "Hg9 mi
8:00 AM47 °FOvercast.9 mph82%30.09 "Hg7 mi
7:00 AM47 °FOvercast.9 mph82%30.06 "Hg11 mi
6:00 AM47 °FOvercast.10 mph84%30.06 "Hg6 mi
5:00 AM47 °FOvercast.10 mph86%30.05 "Hg6 mi
4:00 AM47 °FPassing clouds.10 mph90%30.05 "Hg6 mi
3:00 AM47 °FPassing clouds.9 mph83%30.05 "Hg6 mi
2:00 AM48 °FPassing clouds.10 mph76%30.04 "Hg9 mi
1:00 AM48 °FOvercast.8 mph76%30.04 "Hg7 mi
12:00 AM47 °FPassing clouds.9 mph76%30.02 "Hg7 mi
10:00 PM
Fri, May 22
47 °FScattered clouds.12 mph77%29.98 "Hg7 mi
9:00 PM47 °FLight rain. Partly sunny.10 mph82%29.96 "Hg3 mi
8:00 PM49 °FPassing clouds.9 mph74%29.95 "Hg7 mi
7:00 PM49 °FPartly sunny.10 mph83%29.95 "Hg7 mi
6:00 PM48 °FLight rain. Scattered clouds.6 mph82%29.95 "Hg16 mi
5:00 PM48 °FLight rain. Overcast.5 mph90%29.95 "Hg6 mi
4:00 PM48 °FRain. Partly sunny.5 mph90%29.95 "Hg5 mi
3:00 PM47 °FRain. Fog.7 mph92%29.96 "Hg2 mi
2:00 PM50 °FLow clouds.6 mph94%29.95 "Hg9 mi
Weather by CustomWeather, © 2015

See weather overviewHow to use our weather pages